Location: Bittkow
(50.3000°N, 19.0000°E)
Time: 22:39:20
(UTC+00:00)

ALOS - Pass Details

Date: 19 September 2020
Orbit: 683 x 686 km, 97.9° (Epoch: 21 October)

Event Time Altitude Azimuth Distance (km) Brightness Sun altitude
Rises 03:39:18 0° 13° (NNE) 3,062 6.0 -8.2°
Reaches altitude 10° 03:41:33 10° 13° (NNE) 2,141 5.2 -7.9°
Maximum altitude 03:46:15 89° 294° (WNW) 691 2.3 -7.2°
Drops below altitude 10° 03:50:55 10° 196° (SSW) 2,123 4.6 -6.4°
Sets 03:53:08 0° 196° (SSW) 3,034 5.3 -6.1°
